Precipitable_Water
0.54 0.51 0.52 0.52 0.52 0.52 0.52 0.54 0.59 0.62 0.71 0.78 0.85 0.95 1.03 1.09 1.09 1.04 0.89 0.97 1.20 1.48 1.62 1.48 1.39 1.33 1.37 1.25 1.40 1.33 0.81 0.69 0.73 0.73 0.79 1.02 0.96 1.13 1.21 1.05 1.09 1.21 1.13 1.20 1.34
0.53 0.50 0.50 0.51 0.51 0.51 0.51 0.50 0.54 0.58 0.63 0.72 0.82 0.94 1.01 1.11 0.99 0.87 0.95 1.12 1.29 1.38 1.26 1.09 0.97 1.09 0.97 1.02 1.13 0.97 0.76 0.75 0.87 0.87 0.82 0.94 0.90 0.98 0.99 0.94 0.99 1.11 1.26 1.30 1.31
0.53 0.51 0.49 0.49 0.51 0.51 0.50 0.48 0.49 0.53 0.56 0.67 0.78 0.92 1.01 1.09 0.86 0.83 1.07 1.20 1.29 1.33 1.24 1.16 1.12 0.99 0.79 0.89 0.86 0.86 0.71 0.87 0.89 0.90 0.91 0.89 0.89 0.98 0.89 0.78 0.96 0.98 1.10 1.15 1.16
0.52 0.49 0.48 0.48 0.49 0.50 0.48 0.46 0.46 0.48 0.51 0.59 0.73 0.88 0.97 0.98 0.65 0.92 1.12 1.22 1.30 1.26 1.09 0.99 0.93 0.75 0.63 0.56 0.81 0.65 0.79 0.92 0.88 0.94 0.89 0.85 0.98 0.92 0.95 0.84 1.01 1.17 1.22 1.09 1.05
0.50 0.50 0.47 0.47 0.49 0.47 0.47 0.45 0.44 0.45 0.48 0.54 0.65 0.82 0.85 0.74 0.75 1.10 1.26 1.28 1.23 1.10 0.91 0.83 0.78 0.75 0.63 0.65 0.71 0.69 0.69 0.82 0.96 0.91 0.93 0.94 0.86 0.90 0.96 1.05 1.03 1.11 1.17 1.09 1.10
0.49 0.48 0.47 0.46 0.48 0.47 0.44 0.43 0.42 0.43 0.46 0.51 0.58 0.79 0.74 0.61 0.95 1.15 1.24 1.24 1.14 1.02 0.88 0.88 0.82 0.85 0.71 0.62 0.59 0.64 0.68 0.74 0.91 0.89 0.90 0.84 0.84 0.86 0.98 1.15 1.00 1.04 1.04 1.02 1.07
0.48 0.47 0.44 0.44 0.46 0.47 0.42 0.39 0.39 0.42 0.46 0.48 0.53 0.62 0.64 0.64 0.94 1.11 1.14 1.04 1.05 0.96 0.82 0.93 0.93 0.80 0.72 0.56 0.61 0.62 0.60 0.71 0.77 0.87 0.82 0.82 0.68 0.76 1.03 1.14 0.99 0.99 1.06 1.10 1.11
0.47 0.45 0.43 0.43 0.44 0.44 0.42 0.38 0.38 0.42 0.43 0.45 0.52 0.49 0.49 0.75 0.87 0.83 0.93 0.92 0.98 1.04 0.95 0.92 0.93 0.76 0.64 0.56 0.54 0.49 0.53 0.46 0.67 0.80 0.86 0.78 0.53 0.79 1.02 1.03 0.99 1.04 1.07 1.09 1.18
0.47 0.45 0.43 0.43 0.44 0.42 0.40 0.39 0.40 0.40 0.40 0.47 0.42 0.43 0.39 0.65 0.63 0.65 0.76 0.82 0.90 0.89 0.88 0.84 0.77 0.64 0.57 0.46 0.39 0.41 0.33 0.40 0.46 0.76 0.72 0.73 0.59 0.78 1.04 1.04 1.03 1.05 1.09 1.07 1.13
0.49 0.47 0.45 0.45 0.43 0.41 0.39 0.42 0.43 0.40 0.39 0.42 0.40 0.34 0.43 0.47 0.52 0.55 0.65 0.70 0.63 0.63 0.60 0.59 0.59 0.53 0.45 0.40 0.29 0.31 0.30 0.31 0.31 0.43 0.64 0.60 0.58 0.74 0.93 1.04 1.09 1.10 1.12 1.17 1.16
0.50 0.47 0.45 0.45 0.42 0.40 0.41 0.46 0.30 0.23 0.25 0.13 0.16 0.22 0.31 0.50 0.49 0.43 0.49 0.53 0.56 0.53 0.46 0.54 0.48 0.33 0.38 0.38 0.34 0.34 0.32 0.29 0.30 0.42 0.46 0.46 0.45 0.53 0.77 0.88 0.94 1.11 1.16 1.15 1.17
0.50 0.48 0.44 0.44 0.41 0.49 0.56 0.37 0.34 0.36 0.17 0.26 0.26 0.26 0.31 0.40 0.32 0.33 0.38 0.36 0.42 0.38 0.41 0.43 0.32 0.37 0.40 0.34 0.30 0.31 0.31 0.28 0.30 0.32 0.40 0.37 0.31 0.41 0.58 0.68 0.78 0.87 1.00 1.15 1.20
0.51 0.49 0.45 0.42 0.45 0.53 0.46 0.44 0.52 0.49 0.22 0.19 0.22 0.23 0.26 0.29 0.20 0.23 0.26 0.30 0.35 0.31 0.29 0.32 0.33 0.37 0.34 0.29 0.25 0.27 0.26 0.23 0.20 0.19 0.27 0.23 0.27 0.30 0.43 0.62 0.75 0.81 0.90 1.05 1.12
0.52 0.50 0.46 0.43 0.43 0.47 0.42 0.53 0.52 0.53 0.12 0.10 0.16 0.22 0.27 0.24 0.17 0.27 0.30 0.29 0.27 0.26 0.24 0.26 0.34 0.31 0.31 0.26 0.27 0.22 0.21 0.19 0.16 0.14 0.12 0.19 0.16 0.20 0.28 0.46 0.60 0.72 0.81 0.89 1.01
0.52 0.50 0.47 0.45 0.40 0.40 0.45 0.50 0.49 0.44 0.06 0.14 0.20 0.34 0.27 0.18 0.20 0.19 0.29 0.29 0.22 0.20 0.20 0.17 0.23 0.26 0.26 0.28 0.25 0.20 0.19 0.18 0.16 0.13 0.13 0.18 0.17 0.20 0.29 0.30 0.36 0.46 0.58 0.74 0.88
0.53 0.50 0.48 0.42 0.46 0.48 0.52 0.51 0.40 0.24 0.13 0.17 0.20 0.21 0.19 0.20 0.20 0.20 0.21 0.25 0.24 0.19 0.18 0.19 0.25 0.23 0.23 0.25 0.23 0.22 0.19 0.17 0.16 0.13 0.12 0.17 0.17 0.20 0.26 0.34 0.44 0.50 0.55 0.59 0.79
0.52 0.50 0.46 0.45 0.34 0.55 0.50 0.38 0.14 0.20 0.31 0.21 0.18 0.22 0.17 0.18 0.21 0.20 0.19 0.17 0.15 0.12 0.14 0.18 0.19 0.21 0.22 0.20 0.22 0.20 0.17 0.12 0.11 0.12 0.13 0.18 0.17 0.19 0.27 0.39 0.56 0.59 0.64 0.62 0.62
0.53 0.49 0.47 0.44 0.50 0.51 0.47 0.26 0.10 0.27 0.26 0.27 0.23 0.20 0.15 0.20 0.20 0.19 0.18 0.16 0.18 0.17 0.16 0.15 0.15 0.21 0.23 0.22 0.20 0.19 0.17 0.15 0.11 0.11 0.13 0.18 0.15 0.19 0.29 0.48 0.68 0.76 0.73 0.62 0.60
0.52 0.43 0.39 0.42 0.51 0.53 0.37 0.15 0.20 0.30 0.33 0.25 0.23 0.18 0.17 0.19 0.19 0.19 0.18 0.16 0.18 0.19 0.16 0.16 0.17 0.24 0.24 0.22 0.21 0.18 0.17 0.20 0.17 0.15 0.13 0.15 0.20 0.27 0.35 0.52 0.69 0.75 0.76 0.76 0.87
0.43 0.37 0.38 0.53 0.52 0.50 0.30 0.15 0.28 0.40 0.37 0.28 0.20 0.19 0.16 0.16 0.17 0.17 0.17 0.19 0.19 0.21 0.22 0.19 0.17 0.25 0.26 0.28 0.26 0.21 0.22 0.18 0.19 0.15 0.12 0.15 0.18 0.20 0.29 0.44 0.67 0.69 0.79 0.90 0.97
0.46 0.31 0.51 0.49 0.49 0.41 0.23 0.19 0.33 0.40 0.40 0.30 0.22 0.19 0.18 0.18 0.20 0.18 0.20 0.22 0.23 0.22 0.23 0.21 0.20 0.22 0.28 0.26 0.26 0.27 0.26 0.24 0.22 0.19 0.15 0.14 0.17 0.32 0.39 0.55 0.63 0.73 0.85 0.90 0.98
0.49 0.32 0.53 0.48 0.27 0.30 0.21 0.25 0.36 0.34 0.37 0.34 0.34 0.26 0.21 0.23 0.22 0.21 0.21 0.24 0.29 0.26 0.22 0.25 0.22 0.20 0.25 0.34 0.35 0.32 0.29 0.30 0.25 0.24 0.22 0.20 0.20 0.39 0.51 0.70 0.70 0.72 0.81 0.92 1.00
0.51 0.46 0.50 0.46 0.20 0.21 0.24 0.26 0.34 0.32 0.35 0.38 0.33 0.33 0.33 0.28 0.26 0.26 0.25 0.35 0.31 0.29 0.27 0.27 0.23 0.21 0.24 0.29 0.33 0.30 0.31 0.30 0.27 0.28 0.26 0.25 0.26 0.41 0.54 0.64 0.72 0.71 0.79 0.82 0.87
0.57 0.36 0.36 0.38 0.36 0.25 0.23 0.24 0.29 0.37 0.36 0.40 0.38 0.38 0.35 0.32 0.35 0.29 0.32 0.37 0.41 0.38 0.37 0.32 0.27 0.23 0.20 0.24 0.30 0.28 0.29 0.29 0.25 0.19 0.24 0.28 0.33 0.40 0.43 0.50 0.65 0.71 0.75 0.82 0.88
0.62 0.49 0.44 0.25 0.27 0.33 0.32 0.28 0.31 0.31 0.40 0.44 0.38 0.35 0.35 0.33 0.34 0.33 0.36 0.36 0.39 0.43 0.39 0.36 0.28 0.31 0.32 0.34 0.35 0.34 0.30 0.29 0.25 0.25 0.21 0.28 0.32 0.40 0.47 0.52 0.54 0.65 0.74 0.77 0.82
0.61 0.56 0.54 0.47 0.38 0.36 0.38 0.30 0.31 0.34 0.39 0.38 0.36 0.38 0.37 0.34 0.35 0.35 0.39 0.39 0.37 0.41 0.40 0.42 0.34 0.37 0.34 0.37 0.36 0.32 0.33 0.31 0.30 0.29 0.27 0.29 0.29 0.45 0.55 0.59 0.61 0.60 0.67 0.80 0.82
0.80 0.77 0.63 0.53 0.51 0.42 0.39 0.37 0.31 0.36 0.41 0.44 0.43 0.41 0.38 0.40 0.45 0.46 0.47 0.46 0.45 0.41 0.40 0.40 0.38 0.35 0.30 0.36 0.35 0.29 0.33 0.33 0.34 0.38 0.34 0.26 0.32 0.43 0.45 0.53 0.60 0.70 0.70 0.84 0.87
Wind_Speed
1 2 2 3 3 4 5 6 7 7 7 7 6 5 5 5 6 9 9 9 10 11 11 12 12 12 13 14 13 13 13 12 11 10 10 9 9 9 9 10 8 7 7 12 16
1 2 2 3 3 4 5 6 7 7 7 7 6 5 5 5 7 7 8 9 10 11 11 10 12 12 13 14 13 13 14 12 11 11 11 11 11 10 9 10 9 10 12 15 16
2 2 2 2 3 4 5 6 7 8 7 7 6 5 5 6 8 7 7 9 9 9 10 11 10 11 13 12 13 12 12 11 11 11 12 12 12 11 10 7 7 10 12 14 16
4 3 3 3 3 4 5 6 7 8 8 7 7 6 5 8 8 6 6 8 8 8 9 10 10 11 11 13 12 11 11 9 11 10 11 10 11 11 10 10 8 11 12 14 14
5 4 4 3 3 4 4 5 6 7 8 8 7 6 8 8 7 6 8 8 7 6 6 8 9 9 10 10 10 10 9 9 9 10 10 10 9 9 8 11 13 12 12 13 13
6 6 5 5 4 4 4 5 6 7 8 8 8 8 8 9 6 7 8 8 5 4 4 5 6 7 7 8 9 9 8 8 8 7 8 8 8 8 8 11 13 13 13 13 13
7 7 7 6 6 5 5 5 6 7 8 8 9 9 9 8 6 8 8 6 5 3 2 2 3 5 7 7 9 8 8 8 8 6 6 6 6 6 9 9 10 11 11 12 11
8 8 8 8 7 7 6 6 6 8 9 9 9 9 9 9 7 8 8 6 5 4 2 2 1 3 4 6 6 8 8 7 6 4 5 4 6 6 8 8 9 9 9 9 9
8 8 8 8 8 8 7 7 8 8 9 9 9 9 9 9 8 7 8 6 6 4 4 2 1 2 3 5 5 8 7 7 6 3 4 2 4 6 7 7 7 7 7 8 8
9 9 9 9 9 9 8 9 9 9 9 9 10 9 9 9 8 7 8 7 5 4 3 3 2 2 3 5 4 5 6 6 6 6 1 1 3 1 5 6 7 6 6 6 7
10 9 9 10 9 9 9 10 10 10 10 10 9 9 8 8 9 8 7 7 6 4 4 2 3 2 2 2 3 3 2 4 4 5 2 2 5 3 5 6 7 8 7 8 7
10 10 10 10 10 10 11 10 10 9 10 11 11 11 10 10 9 8 9 8 6 5 4 4 5 3 3 2 3 2 3 5 6 5 5 5 8 5 7 9 9 9 9 9 8
11 11 11 11 11 12 11 11 9 9 10 11 11 11 9 10 9 10 10 8 7 5 4 6 4 4 3 3 3 3 6 7 6 7 5 8 7 7 6 8 9 9 8 9 10
12 12 11 11 13 13 12 11 9 11 9 11 12 11 10 9 8 9 9 8 6 7 5 6 6 5 5 5 5 6 5 6 8 7 8 6 6 3 4 7 9 10 11 12 14
14 13 13 13 13 14 13 11 11 11 10 12 13 11 11 10 7 9 9 8 7 6 6 4 6 6 6 5 5 5 6 7 7 6 4 2 3 2 2 2 6 9 11 12 13
15 14 14 14 15 15 12 12 12 11 10 12 13 13 13 11 8 9 9 7 6 6 5 7 5 6 5 4 4 4 6 6 4 3 2 2 4 0 4 7 9 8 9 9 11
16 16 16 15 15 15 14 14 12 12 11 12 13 14 14 12 10 10 11 10 6 6 6 3 5 5 4 4 3 3 5 5 2 2 1 3 3 4 5 8 8 10 10 9 9
17 18 17 18 17 15 15 14 14 12 14 12 12 14 15 13 10 9 10 10 8 6 5 4 3 3 3 2 0 2 4 5 4 5 6 3 5 6 5 9 8 5 5 7 7
19 19 18 18 19 18 17 16 14 14 13 14 13 15 13 13 10 10 11 11 10 11 6 5 3 3 2 2 3 2 3 4 3 4 5 5 7 7 7 8 5 3 2 1 5
20 19 19 18 20 19 17 17 15 15 13 14 14 15 16 15 12 12 11 10 9 11 8 5 4 1 3 1 5 3 1 4 5 5 7 6 6 8 12 9 6 4 3 1 4
21 21 19 20 20 19 19 18 16 16 16 16 14 14 16 15 14 13 11 8 9 10 8 7 4 4 4 2 1 2 3 4 4 7 8 8 6 7 9 8 6 4 3 4 4
22 21 21 22 20 19 19 19 16 16 16 16 14 13 16 16 15 13 12 8 10 11 10 7 4 3 3 3 4 4 4 5 7 6 7 8 9 7 8 7 6 5 4 3 3
22 21 23 22 21 20 19 20 19 17 17 17 17 15 15 15 13 14 13 10 10 10 8 10 6 5 4 5 5 6 6 7 8 9 8 9 8 8 8 8 8 7 6 5 5
22 22 23 23 21 21 20 21 20 19 18 18 17 16 16 14 12 13 12 11 11 9 8 8 7 8 9 7 5 7 7 8 9 10 9 12 13 10 9 9 10 10 9 8 8
21 22 22 24 25 22 20 20 20 19 19 18 19 19 17 14 13 13 12 11 10 10 9 9 7 7 6 7 8 9 9 9 9 9 10 11 12 14 11 12 14 14 13 11 10
19 21 22 21 23 23 22 22 23 22 21 19 19 19 18 16 15 15 14 12 11 10 10 10 9 9 9 9 10 12 12 12 11 10 12 13 14 12 15 13 13 15 15 14 13
18 19 21 21 22 22 22 22 23 23 24 22 20 19 19 17 16 13 12 11 11 12 12 11 11 12 12 12 12 14 16 14 13 13 14 16 16 16 16 14 14 15 14 14 14
Wind_Direction
118 116 135 149 156 165 171 173 170 168 165 160 150 140 124 105 106 108 100 93 87 91 80 75 66 63 61 61 63 66 66 66 71 78 79 84 79 80 81 99 96 81 109 137 145
155 136 136 151 159 167 174 178 178 175 174 171 165 155 141 125 127 121 108 102 98 94 80 73 66 63 64 62 66 63 66 65 68 75 82 82 77 89 83 102 90 89 105 131 144
192 168 153 152 160 166 172 178 182 182 181 180 175 168 158 147 141 128 121 117 107 93 76 70 67 67 66 63 59 60 61 68 68 77 85 82 75 76 91 100 108 117 123 136 146
211 198 182 168 165 168 173 178 184 187 187 186 184 181 174 158 154 144 134 134 118 95 76 70 64 66 58 55 54 51 54 63 72 77 81 84 78 73 86 69 114 125 128 137 146
220 213 203 191 180 176 177 180 185 189 189 188 186 182 171 166 160 158 149 147 132 105 77 69 60 59 48 41 39 46 53 66 78 79 78 79 73 70 84 74 100 117 134 140 146
225 221 216 207 199 191 191 192 192 193 192 188 186 183 175 169 168 166 161 159 154 125 89 78 58 47 41 41 38 30 49 65 79 74 76 72 70 78 75 96 103 115 121 135 146
228 226 223 218 212 207 204 200 200 197 192 189 186 180 180 174 173 168 169 175 178 170 124 85 44 36 26 29 31 38 49 72 65 77 63 64 66 74 101 109 114 119 124 130 136
229 228 225 223 219 216 212 209 203 194 188 186 184 182 186 182 175 178 187 191 197 202 220 276 355 8 21 13 41 44 52 54 44 75 61 64 55 75 127 125 125 130 131 138 145
231 229 227 224 220 218 218 213 196 187 185 186 185 186 188 188 193 196 197 199 199 215 238 251 257 358 9 15 42 41 39 34 38 63 61 54 34 64 140 144 144 148 156 158 156
232 230 227 224 220 219 216 200 194 191 188 188 191 191 198 193 195 197 199 206 215 221 212 213 232 320 3 24 26 3 21 23 26 28 13 12 303 47 171 165 168 175 180 179 187
233 230 226 223 218 215 203 196 200 200 198 197 197 204 203 205 204 203 202 203 219 222 220 234 261 255 322 341 333 336 348 348 360 14 360 305 298 272 202 200 197 196 192 189 193
233 231 227 221 217 210 197 197 195 206 208 208 212 214 212 209 204 206 202 206 213 217 218 221 245 237 278 297 317 319 313 330 322 341 311 324 298 294 217 221 211 201 203 202 202
233 230 226 220 214 199 197 194 204 205 208 210 208 207 204 198 208 205 206 205 211 211 218 222 214 247 250 292 311 314 334 325 321 328 320 316 287 275 243 227 218 219 218 212 211
232 228 224 219 204 203 201 204 219 201 206 205 203 202 196 203 210 204 201 202 207 213 210 234 232 238 267 276 295 318 326 320 315 313 320 326 322 327 247 228 220 235 239 234 229
232 227 222 212 207 203 204 217 200 203 203 195 197 199 198 201 196 198 200 202 205 204 212 219 224 237 264 270 278 310 324 326 313 296 299 347 324 17 57 234 254 253 249 239 231
231 226 221 212 209 207 213 204 205 211 214 200 196 200 195 202 199 190 194 192 206 205 226 235 239 245 252 277 284 296 311 324 327 300 232 354 339 344 0 317 285 277 271 250 228
230 224 218 213 208 209 211 204 208 215 203 200 200 199 198 196 197 191 192 194 198 192 210 219 228 238 237 254 287 312 331 337 336 340 267 303 301 303 308 326 294 282 278 248 231
229 222 218 215 210 209 206 205 214 212 203 199 197 190 197 193 200 193 188 198 200 185 170 186 161 197 183 210 162 4 352 7 350 327 308 281 316 312 317 325 313 302 285 235 229
224 219 217 214 211 209 206 210 217 208 208 197 193 194 198 199 199 196 196 199 199 194 195 176 140 142 151 205 281 300 332 344 0 329 298 314 302 285 322 337 350 350 342 215 194
219 217 214 214 206 207 210 216 217 211 211 204 201 205 198 195 195 195 191 195 198 195 200 189 159 170 165 264 22 315 273 313 325 307 310 308 300 304 322 319 322 337 331 232 199
217 214 216 208 208 210 214 215 217 216 212 204 206 198 200 194 195 193 193 191 196 190 196 190 212 194 222 316 306 308 302 334 314 308 299 299 300 305 303 308 304 306 292 262 233
216 215 212 208 209 214 213 212 214 214 208 210 206 198 193 193 195 202 201 199 191 184 193 201 203 212 222 269 285 312 321 320 319 306 304 301 295 303 301 289 287 281 271 260 243
215 215 210 212 213 213 215 216 215 213 211 208 206 204 197 195 199 205 205 202 196 198 195 202 219 204 210 242 263 289 308 314 313 300 284 292 295 302 292 283 276 275 277 269 261
214 213 213 213 216 213 213 215 216 214 215 213 207 202 198 201 207 202 204 211 211 218 216 206 223 237 237 251 264 275 293 307 303 299 296 287 296 293 297 288 280 271 274 272 265
216 216 215 214 215 214 216 216 215 217 214 213 208 208 204 203 205 206 209 205 214 215 219 234 236 245 257 263 274 274 275 280 289 294 294 301 288 288 289 288 279 271 267 271 269
217 216 214 214 213 213 215 218 217 217 216 213 213 209 211 210 215 211 210 219 222 223 231 244 244 252 263 273 280 279 281 282 290 288 288 292 292 282 286 282 281 277 265 265 265
217 215 216 214 213 214 218 219 219 218 219 218 215 211 214 216 216 214 222 224 231 235 241 250 245 254 260 274 276 275 270 270 282 283 288 289 292 290 283 286 285 282 268 261 262